Regional Weather Roundup
Issued by NWS

Home | Current Version | Previous Version | Graphics & Text | Print | Product List | Glossary On
Versions: 1 2 3 4 5 6 7 8 9 10 11 12 13 14 15 16 17 18 19 20 21 22 23 24 25 26 27 28 29 30 31 32 33 34 35 36 37 38 39 40 41 42 43 44 45 46 47 48 49 50
000
ASUS45 KCYS 301710
RWRWY

WYOMING REGIONAL WEATHER ROUNDUP
NATIONAL WEATHER SERVICE CHEYENNE WY
1100 AM MDT FRI SEP 30 2016

NOTE:  "FAIR" INDICATES FEW OR NO CLOUDS BELOW 12,000 FEET
WITH NO SIGNIFICANT WEATHER AND/OR OBSTRUCTIONS TO VISIBILITY.

WYZ001-301800-
YELLOWSTONE NATIONAL PARK

CITY           SKY/WX    TMP DP  RH WIND       PRES   REMARKS
LK YELLOWSTONE   N/A     48  44  86 VRB3      30.38F
W YELLOWSTONE  NOT AVBL

$$
WYZ002>013-054>058-071-098>099-301800-
NORTHERN WYOMING

CITY           SKY/WX    TMP DP  RH WIND       PRES   REMARKS
JACKSON        CLOUDY    46  45  93 CALM      30.34
CODY           FAIR      70  44  39 W9        30.16F
GREYBULL       FAIR      66  52  60 CALM      30.12F
WORLAND        FAIR      64  50  60 CALM      30.14S
SHERIDAN       FAIR      72  48  42 CALM      30.08S
BUFFALO        FAIR      72  44  36 VRB3      30.14R
GILLETTE       FAIR      72  50  45 W12       30.08F
HULETT         FAIR      68  46  45 SW13G20   30.10R
NEWCASTLE      DRIZZLE   66  45  45 SE7       30.15R

$$
WYZ014>020-022>026-101>103-301800-
CENTRAL WYOMING

CITY           SKY/WX    TMP DP  RH WIND       PRES   REMARKS
BIG PINEY      FAIR      56  43  61 CALM      30.36S
PINEDALE       FAIR      55  43  62 CALM      30.36F
DUBOIS         PTSUNNY   61  41  48 NW10G17   30.31R
LANDER         FAIR      66  45  46 E7        30.22S
RIVERTON       FAIR      63  48  58 SW7       30.22F
CASPER         FAIR      68  49  50 SW22      30.20F
DOUGLAS        LGT RAIN  67  49  52 W9        30.19R

$$
WYZ021-027>030-104>119-301800-
SOUTHERN WYOMING

CITY           SKY/WX    TMP DP  RH WIND       PRES   REMARKS
EVANSTON       CLOUDY    57  43  59 VRB5      30.36S
FORT BRIDGER   CLOUDY    62  42  48 W9G16     30.38S
ROCK SPRINGS   FAIR      61  44  53 W8        30.34S
DIXON          CLOUDY    61  48  61 SW13      30.38S
RAWLINS        FAIR      63  44  50 W12G17    30.33F
SARATOGA       FAIR      61  46  59 S8        30.37S
LARAMIE        CLOUDY    57  48  72 SW9       30.35S
CHEYENNE       LGT RAIN  59  52  77 CALM      30.29S
TORRINGTON     CLOUDY    63  44  50 SE5       30.18F
PINE BLUFFS    PTSUNNY   68  43  40 NW16G24   30.24F

$$



USA.gov is the U.S. government's official web portal to all federal, state and local government web resources and services.